When you browse on this site, cookies collect data to enhance your experience and personalize the content and advertising you see.
Visit our Privacy Policy to learn more. By continuing to use the site, you agree to this use of cookies and data.
EN

Hourly Weather Lyman (Krasnyj Liman)

Today, 12 August, Wednesday

Time Temperature Precipitation Wind Pressure Humidity
00:00 +21°C° 0.7 mm 1 mps 749 mmHg 72%
01:00 +21°C° 0 mm 1 mps 748 mmHg 73%
02:00 +20°C° 0 mm 1 mps 748 mmHg 73%
03:00 +20°C° 0 mm 1 mps 748 mmHg 76%
04:00 +20°C° 0 mm 1 mps 748 mmHg 76%
05:00 +18°C° 0 mm 2 mps 748 mmHg 76%
06:00 +18°C° 0 mm 2 mps 748 mmHg 77%
07:00 +20°C° 0 mm 2 mps 748 mmHg 69%
08:00 +23°C° 0 mm 2 mps 748 mmHg 62%
09:00 +25°C° 0 mm 2 mps 748 mmHg 55%
10:00 +26°C° 0.2 mm 3 mps 748 mmHg 51%
11:00 +28°C° 0.2 mm 3 mps 748 mmHg 47%
12:00 +29°C° 0.2 mm 3 mps 748 mmHg 43%
13:00 +29°C° 0 mm 4 mps 748 mmHg 43%
14:00 +29°C° 0 mm 4 mps 748 mmHg 43%
15:00 +29°C° 0 mm 4 mps 748 mmHg 42%
16:00 +28°C° 0 mm 5 mps 748 mmHg 43%
17:00 +28°C° 0 mm 5 mps 748 mmHg 45%
18:00 +27°C° 0 mm 5 mps 748 mmHg 46%
19:00 +25°C° 0 mm 5 mps 748 mmHg 54%
20:00 +22°C° 0 mm 4 mps 748 mmHg 62%
21:00 +20°C° 0 mm 3 mps 749 mmHg 70%
22:00 +19°C° 0 mm 3 mps 749 mmHg 71%
23:00 +18°C° 0 mm 3 mps 749 mmHg 72%

Tomorrow, 13 August, Thursday

Time Temperature Precipitation Wind Pressure Humidity
00:00 +17°C° 0 mm 3 mps 749 mmHg 73%
01:00 +16°C° 0 mm 3 mps 749 mmHg 74%
02:00 +14°C° 0 mm 3 mps 749 mmHg 75%
03:00 +13°C° 0 mm 3 mps 749 mmHg 75%
04:00 +13°C° 0 mm 3 mps 749 mmHg 77%
05:00 +14°C° 0 mm 2 mps 750 mmHg 79%
06:00 +13°C° 0 mm 2 mps 750 mmHg 80%
07:00 +14°C° 0 mm 3 mps 750 mmHg 73%
08:00 +17°C° 0 mm 3 mps 750 mmHg 65%
09:00 +20°C° 0 mm 4 mps 750 mmHg 58%
10:00 +21°C° 0 mm 4 mps 750 mmHg 53%
11:00 +22°C° 0 mm 5 mps 750 mmHg 47%
12:00 +23°C° 0 mm 5 mps 750 mmHg 42%
13:00 +23°C° 0 mm 5 mps 750 mmHg 42%
14:00 +23°C° 0 mm 6 mps 750 mmHg 42%
15:00 +24°C° 0 mm 6 mps 750 mmHg 42%
16:00 +23°C° 0 mm 6 mps 749 mmHg 44%
17:00 +22°C° 0 mm 6 mps 749 mmHg 45%
18:00 +21°C° 0 mm 5 mps 749 mmHg 47%
19:00 +20°C° 0 mm 4 mps 750 mmHg 53%
20:00 +18°C° 0 mm 3 mps 750 mmHg 58%
21:00 +16°C° 0 mm 2 mps 750 mmHg 64%
22:00 +16°C° 0 mm 2 mps 750 mmHg 66%
23:00 +15°C° 0 mm 2 mps 750 mmHg 68%

Day after tomorrow, 14 August, Friday

Time Temperature Precipitation Wind Pressure Humidity
00:00 +15°C° 0 mm 2 mps 750 mmHg 70%
01:00 +14°C° 0 mm 2 mps 750 mmHg 73%
02:00 +14°C° 0 mm 2 mps 750 mmHg 75%
03:00 +13°C° 0 mm 2 mps 750 mmHg 78%
04:00 +13°C° 0 mm 2 mps 750 mmHg 80%
05:00 +13°C° 0 mm 2 mps 750 mmHg 81%
06:00 +13°C° 0 mm 2 mps 750 mmHg 82%
07:00 +15°C° 0 mm 2 mps 750 mmHg 74%
08:00 +17°C° 0 mm 2 mps 750 mmHg 66%
09:00 +19°C° 0 mm 3 mps 750 mmHg 58%
10:00 +20°C° 0.1 mm 3 mps 750 mmHg 55%
11:00 +21°C° 0.1 mm 3 mps 750 mmHg 51%
12:00 +22°C° 0.1 mm 3 mps 750 mmHg 47%
13:00 +22°C° 0.1 mm 4 mps 750 mmHg 45%
14:00 +22°C° 0.1 mm 4 mps 750 mmHg 43%
15:00 +23°C° 0.1 mm 4 mps 750 mmHg 41%
16:00 +22°C° 0 mm 5 mps 750 mmHg 41%
17:00 +22°C° 0 mm 5 mps 750 mmHg 41%
18:00 +21°C° 0 mm 5 mps 750 mmHg 41%
19:00 +19°C° 0 mm 4 mps 750 mmHg 47%
20:00 +18°C° 0 mm 4 mps 750 mmHg 54%
21:00 +16°C° 0 mm 3 mps 750 mmHg 60%
22:00 +14°C° 0 mm 3 mps 751 mmHg 65%
23:00 +13°C° 0 mm 3 mps 751 mmHg 71%

15 August, Saturday

Time Temperature Precipitation Wind Pressure Humidity
00:00 +13°C° 0 mm 3 mps 751 mmHg 77%
01:00 +12°C° 0 mm 3 mps 751 mmHg 78%
02:00 +13°C° 0 mm 2 mps 751 mmHg 80%
03:00 +12°C° 0 mm 2 mps 751 mmHg 82%
04:00 +12°C° 0 mm 2 mps 752 mmHg 82%
05:00 +10°C° 0 mm 2 mps 752 mmHg 82%
06:00 +10°C° 0 mm 3 mps 752 mmHg 82%
07:00 +12°C° 0 mm 3 mps 752 mmHg 71%
08:00 +15°C° 0 mm 4 mps 752 mmHg 61%
09:00 +17°C° 0 mm 5 mps 752 mmHg 50%
10:00 +19°C° 0 mm 4 mps 752 mmHg 47%
11:00 +20°C° 0 mm 4 mps 752 mmHg 45%
12:00 +21°C° 0 mm 4 mps 752 mmHg 42%
13:00 +21°C° 0 mm 4 mps 752 mmHg 41%
14:00 +21°C° 0 mm 4 mps 752 mmHg 40%
15:00 +22°C° 0 mm 5 mps 752 mmHg 40%
16:00 +21°C° 0 mm 4 mps 752 mmHg 40%
17:00 +21°C° 0 mm 4 mps 752 mmHg 40%
18:00 +21°C° 0 mm 4 mps 752 mmHg 41%
19:00 +19°C° 0 mm 4 mps 752 mmHg 45%
20:00 +18°C° 0 mm 3 mps 752 mmHg 49%
21:00 +17°C° 0 mm 2 mps 753 mmHg 53%
22:00 +16°C° 0 mm 2 mps 753 mmHg 56%
23:00 +15°C° 0 mm 2 mps 753 mmHg 60%

16 August, Sunday

Time Temperature Precipitation Wind Pressure Humidity
00:00 +14°C° 0 mm 2 mps 753 mmHg 63%
01:00 +14°C° 0 mm 2 mps 753 mmHg 68%
02:00 +13°C° 0 mm 2 mps 753 mmHg 74%
03:00 +13°C° 0 mm 2 mps 753 mmHg 80%
04:00 +13°C° 0 mm 2 mps 753 mmHg 82%
05:00 +12°C° 0 mm 2 mps 752 mmHg 84%
06:00 +12°C° 0 mm 2 mps 752 mmHg 87%
07:00 +14°C° 0 mm 3 mps 752 mmHg 77%
08:00 +17°C° 0 mm 3 mps 753 mmHg 67%
09:00 +20°C° 0 mm 4 mps 753 mmHg 57%
10:00 +21°C° 0 mm 4 mps 753 mmHg 51%
11:00 +23°C° 0 mm 4 mps 753 mmHg 45%
12:00 +25°C° 0 mm 5 mps 753 mmHg 39%
13:00 +25°C° 0 mm 4 mps 752 mmHg 38%
14:00 +25°C° 0 mm 4 mps 752 mmHg 36%
15:00 +25°C° 0 mm 4 mps 752 mmHg 35%
16:00 +25°C° 0 mm 4 mps 752 mmHg 37%
17:00 +25°C° 0 mm 4 mps 752 mmHg 39%
18:00 +23°C° 0 mm 4 mps 752 mmHg 41%
19:00 +21°C° 0 mm 3 mps 752 mmHg 48%
20:00 +19°C° 0 mm 3 mps 752 mmHg 56%
21:00 +18°C° 0 mm 2 mps 752 mmHg 64%
22:00 +17°C° 0 mm 2 mps 752 mmHg 69%
23:00 +16°C° 0 mm 2 mps 752 mmHg 73%

17 August, Monday

Time Temperature Precipitation Wind Pressure Humidity
00:00 +16°C° 0 mm 1 mps 752 mmHg 77%
01:00 +15°C° 0 mm 1 mps 752 mmHg 79%
02:00 +15°C° 0 mm 1 mps 752 mmHg 80%
03:00 +14°C° 0 mm 1 mps 752 mmHg 82%
04:00 +14°C° 0 mm 1 mps 752 mmHg 82%
05:00 +14°C° 0 mm 1 mps 752 mmHg 82%
06:00 +14°C° 0 mm 1 mps 752 mmHg 82%
07:00 +16°C° 0 mm 1 mps 752 mmHg 74%
08:00 +20°C° 0 mm 1 mps 752 mmHg 65%
09:00 +22°C° 0 mm 1 mps 752 mmHg 57%
10:00 +24°C° 0 mm 1 mps 752 mmHg 52%
11:00 +25°C° 0 mm 2 mps 752 mmHg 47%
12:00 +27°C° 0 mm 2 mps 752 mmHg 42%
13:00 +27°C° 0 mm 2 mps 752 mmHg 40%
14:00 +28°C° 0 mm 2 mps 752 mmHg 37%
15:00 +29°C° 0 mm 3 mps 752 mmHg 35%
16:00 +28°C° 0 mm 3 mps 752 mmHg 36%
17:00 +28°C° 0 mm 3 mps 752 mmHg 38%
18:00 +28°C° 0 mm 3 mps 752 mmHg 39%
19:00 +26°C° 0 mm 2 mps 752 mmHg 45%
20:00 +24°C° 0 mm 2 mps 752 mmHg 50%
21:00 +21°C° 0 mm 2 mps 752 mmHg 56%
22:00 +21°C° 0 mm 1 mps 752 mmHg 59%
23:00 +20°C° 0 mm 1 mps 752 mmHg 61%
Show more